Location: ????????
(55.3155°N, 39.2900°E)
Time: 11:51:03
(UTC+00:00)

Meteor 2-10 - Pass Details

Date: 14 April 2024
Orbit: 738 x 866 km, 81.2° (Epoch: 27 May)

Event Time Altitude Azimuth Distance (km) Brightness Sun altitude
Rises 00:26:37 0° 344° (NNW) 3,371 7.7 -14.8°
Reaches altitude 10° 00:29:00 10° 342° (NNW) 2,452 6.9 -14.5°
Maximum altitude 00:34:33 72° 260° (W) 896 4.2 -13.9°
Drops below altitude 10° 00:40:12 10° 177° (S) 2,495 6.3 -13.3°
Sets 00:42:39 0° 176° (S) 3,435 7.0 -13.0°
